Hourly Weather Roundup
Issued by NWS Central Illinois

Home | Current Version | Previous Version | Text Only | Print | Product List | Glossary On
Versions: 1 2 3 4 5 6 7 8 9 10 11 12 13 14 15 16 17 18 19 20 21 22 23 24 25 26 27 28 29 30 31 32 33 34 35 36 37 38 39 40 41 42 43 44 45 46 47 48 49 50
000
NZUS43 KILX 271810
HWRILX

AREA WEATHER ROUNDUP
NATIONAL WEATHER SERVICE, LINCOLN IL
100 PM CDT WED MAY 27 2015


CITY           SKY/WX    TMP DP  RH WIND       PRES   REMARKS
BLOOMINGTON    FAIR      76  60  57 W17       30.03F
6HR MIN TEMP:  66; 6HR MAX TEMP:  76; 6HR PCP: TRACE;

CHAMPAIGN      MOSUNNY   78  65  63 W18G24    30.02F HX  80
6HR MIN TEMP:  68; 6HR MAX TEMP:  78; 6HR PCP: TRACE;

DANVILLE       CLOUDY    76  65  67 W14       29.99F
6HR MIN TEMP:  66; 6HR MAX TEMP:  76;

DECATUR        PTSUNNY   76  64  66 W12       30.03S
6HR MIN TEMP:  67; 6HR MAX TEMP:  77;

EFFINGHAM      FAIR      78  57  49 SW8       30.07S
FLORA          PTSUNNY   78  60  53 S9        30.07R
6HR MIN TEMP:  65; 6HR MAX TEMP:  78;

GALESBURG      PTSUNNY   72  59  64 W8        30.05S
JACKSONVILLE   FAIR      77  61  56 W14       30.06R
6HR MIN TEMP:  68; 6HR MAX TEMP:  78;

LACON          FAIR      74  59  59 W10G18    30.01F
6HR MIN TEMP:  65; 6HR MAX TEMP:  74;

LAWRENCEVILLE  PTSUNNY   79  62  56 W7        30.07R HX  80
6HR MIN TEMP:  67; 6HR MAX TEMP:  80;

LITCHFIELD     FAIR      75  64  68 SW12      30.06S
$$


CITY           SKY/WX    TMP DP  RH WIND       PRES   REMARKS
LINCOLN        FAIR      78  59  52 W12       30.00S
MACOMB         PTSUNNY   72  60  65 NW12      30.08S
MATTOON        NOT AVBL
MT CARMEL AP   SUNNY     82  54  36 W12       30.07R HX  81
OLNEY-NOBLE AP FAIR      77  61  57 SE7       30.07R
PARIS          CLOUDY    80  61  51 SW14      30.04F HX  81
6HR MIN TEMP:  69; 6HR MAX TEMP:  81;

PEORIA         FAIR      76  57  51 W15       30.03S
6HR MIN TEMP:  67; 6HR MAX TEMP:  77;

PONTIAC        FAIR      77  60  56 W20G25    30.01F
RANTOUL        PTSUNNY   77  66  68 W16       30.01F
6HR MIN TEMP:  68; 6HR MAX TEMP:  77;

ROBINSON       PTSUNNY   76  59  54 W7        30.07F
6HR MIN TEMP:  67; 6HR MAX TEMP:  78;

SPRINGFIELD    FAIR      80  59  48 W17       30.04R HX  81
6HR MIN TEMP:  68; 6HR MAX TEMP:  80; 6HR PCP:  0.01;

TAYLORVILLE    PTSUNNY   75  63  64 W15       30.05R
$$

...REGIONAL REPORTS...


CITY           SKY/WX    TMP DP  RH WIND       PRES   REMARKS
CHICAGO O`HARE PTSUNNY   72  58  61 W16G28    29.98R
KANKAKEE       CLOUDY    75  60  59 W18G24    30.01S
MOLINE         FAIR      74  57  55 NW10G20   30.02S
MOUNT VERNON   FAIR      77  64  65 S3        30.08F
PITTSFIELD     FAIR      76  59  56 W9G18     30.08R
QUINCY         FAIR      74  58  57 NW9       30.07S
ROCKFORD       PTSUNNY   72  58  61 W18       30.01S
$$


CITY           SKY/WX    TMP DP  RH WIND       PRES   REMARKS
BURLINGTON     FAIR      73  60  63 VRB7      30.05F
CEDAR RAPIDS   FAIR      73  61  65 W9        30.05R
DES MOINES     FAIR      79  54  41 W6        30.05S
KIRKSVILLE     FAIR      76  60  57 W12       30.09S
OTTUMWA        FAIR      74  60  61 VRB7      30.06S
ST LOUIS       FAIR      81  63  54 W10       30.06F HX  82
$$


CITY           SKY/WX    TMP DP  RH WIND       PRES   REMARKS
TERRE HAUTE    CLOUDY    77  59  53 SW13      30.05S
EVANSVILLE     MOSUNNY   78  67  68 S12       30.07F HX  80
INDIANAPOLIS   PTSUNNY   78  63  59 SW20G25   30.04F HX  80
LAFAYETTE      CLOUDY    76  62  62 SW16G28   30.00F
MADISON        PTSUNNY   70  57  63 N10       30.00R
MILWAUKEE      PTSUNNY   69  55  60 W15G23    29.96R
$$





USA.gov is the U.S. government's official web portal to all federal, state and local government web resources and services.